Springfield, IL

10:52 AM CDT on May 23, 2018 (GMT -0500)
Capital

Weather History for KSPI - April, 2013

Change the Weather History Date:

Wednesday, April 17, 2013

  Actual Average Record
Temperature  
Mean Temperature 60 °F 54 °F  
Max Temperature 74 °F 65 °F 89 °F (1937)
Min Temperature 45 °F 43 °F 26 °F (1997)
Degree Days  
Heating Degree Days 5 12  
Month to date heating degree days 235 244  
Since 1 July heating degree days 5052 5226  
Cooling Degree Days 0 1  
Month to date cooling degree days 7 6  
Year to date cooling degree days 7 8  
Growing Degree Days 8 (Base 50)    
Moisture  
Dew Point 50 °F    
Average Humidity 86    
Maximum Humidity 100    
Minimum Humidity 71    
Precipitation  
Precipitation 0.01 in 0.12 in 1.13 in (1912)
Month to date precipitation 2.78 1.86  
Year to date precipitation 11.83 8.12  
Snow  
Snow 0.00 in 0.00 in 1.60 in (1953)
Month to date snowfall 0.0 0.3  
Since 1 July snowfall 33.1 20.9  
Snow Depth 0.00 in    
Sea Level Pressure  
Sea Level Pressure 29.93 in    
Wind  
Wind Speed 13 mph (East)    
Max Wind Speed 25 mph    
Max Gust Speed 33 mph    
Visibility 7 miles    
Events Rain    
T = Trace of Precipitation, MM = Missing Value Source: NWS Daily Summary

Daily Weather History Graph

Daily Weather History Graph

Search for Another Location

Airport or City:

Astronomy

Apr. 17, 2013 Rise Set
Actual Time 6:17 AM CDT 7:39 PM CDT
Civil Twilight 5:49 AM CDT 8:07 PM CDT
Nautical Twilight 5:15 AM CDT 8:41 PM CDT
Astronomical Twilight 4:40 AM CDT 9:16 PM CDT
Moon 11:31 AM CDT (4/17) 1:16 AM CDT (4/17)
Length of Visible Light 14h 17m
Length of Day
13h 21m
Waxing Crescent, 42% of the Moon is Illuminated
Apr 17
Waxing Crescent
Apr 18
First Quarter
Apr 25
Full
May 2
Last Quarter
May 9
New

Hourly Weather History & Observations

Time (CDT) Temp. Windchill Dew Point Humidity Pressure Visibility Wind Dir Wind Speed Gust Speed Precip Events Conditions
12:52 AM 48.0 °F - 41.0 °F 77% - 10.0 mi ENE 10.4 mph - 0.00 in   Overcast
1:52 AM 48.0 °F - 39.0 °F 71% - 10.0 mi ENE 15.0 mph - 0.00 in   Overcast
2:52 AM 48.0 °F - 41.0 °F 77% - 10.0 mi NE 12.7 mph - 0.00 in Rain Light Rain
3:52 AM 48.0 °F - 39.9 °F 74% - 10.0 mi ENE 10.4 mph - 0.00 in   Overcast
4:52 AM 46.9 °F - 39.0 °F 74% - 10.0 mi East 13.8 mph - N/A   Overcast
5:24 AM 46.4 °F 39.8 °F 39.2 °F 76% - 10.0 mi East 16.1 mph 25.3 mph N/A   Overcast
5:52 AM 46.0 °F 39.6 °F 41.0 °F 83% 30.12 in 10.0 mi East 15.0 mph 23.0 mph N/A   Overcast
6:52 AM 45.0 °F 37.9 °F 42.1 °F 90% 30.12 in 5.0 mi East 16.1 mph 21.9 mph 0.00 in Rain Light Rain
7:43 AM 44.6 °F 38.8 °F 44.6 °F 100% 30.12 in 3.0 mi East 11.5 mph 21.9 mph 0.00 in Rain Light Rain
7:52 AM 45.0 °F 39.7 °F 44.1 °F 97% 30.12 in 3.0 mi East 10.4 mph - 0.00 in   Overcast
8:00 AM 44.6 °F 39.2 °F 44.6 °F 100% 30.11 in 2.5 mi East 10.4 mph - N/A   Overcast
8:30 AM 46.4 °F 41.5 °F 46.4 °F 100% 30.11 in 3.0 mi East 10.4 mph - N/A   Overcast
8:52 AM 46.9 °F - 46.0 °F 97% 30.09 in 3.0 mi ESE 12.7 mph - N/A   Overcast
9:52 AM 50.0 °F - 48.0 °F 93% 30.06 in 4.0 mi ESE 13.8 mph - N/A   Overcast
10:52 AM 52.0 °F - 51.1 °F 97% 30.06 in 6.0 mi SE 11.5 mph - N/A   Overcast
11:31 AM 55.4 °F - 53.6 °F 94% 30.02 in 6.0 mi SE 9.2 mph - N/A   Overcast
11:52 AM 57.0 °F - 55.0 °F 93% 30.02 in 5.0 mi SSE 9.2 mph - N/A   Overcast
12:52 PM 62.1 °F - 60.1 °F 93% 29.97 in 5.0 mi SSE 11.5 mph - N/A   Overcast
1:52 PM 66.9 °F - 64.0 °F 90% 29.92 in 5.0 mi SSE 15.0 mph 18.4 mph N/A   Overcast
2:17 PM 69.8 °F - 64.4 °F 83% 29.89 in 6.0 mi South 12.7 mph 19.6 mph N/A   Overcast
2:45 PM 73.4 °F - 68.0 °F 83% 29.88 in 9.0 mi South 17.3 mph 26.5 mph 0.01 in Rain Light Rain
2:52 PM 73.9 °F - 68.0 °F 82% 29.90 in 10.0 mi SW 8.1 mph 21.9 mph 0.01 in Rain Light Rain
3:01 PM 71.6 °F - 66.2 °F 83% 29.90 in 10.0 mi SW 9.2 mph - 0.00 in   Mostly Cloudy
3:42 PM 60.8 °F - 57.2 °F 88% 29.91 in 5.0 mi North 20.7 mph 27.6 mph 0.00 in Rain Light Rain
3:52 PM 57.2 °F - 55.4 °F 94% 29.92 in 3.0 mi North 19.6 mph 27.6 mph N/A Rain Light Rain
4:52 PM 51.1 °F - 50.0 °F 96% 29.91 in 6.0 mi North 15.0 mph 23.0 mph 0.00 in   Overcast
5:52 PM 48.0 °F - 46.0 °F 93% 29.89 in 10.0 mi NNE 24.2 mph 31.1 mph N/A   Overcast
6:13 PM 48.2 °F - 46.4 °F 93% 29.87 in 10.0 mi NE 15.0 mph 26.5 mph 0.00 in Rain Light Rain
6:52 PM 48.9 °F - 46.9 °F 93% 29.87 in 10.0 mi NE 12.7 mph - 0.00 in   Overcast
7:52 PM 52.0 °F - 50.0 °F 93% 29.81 in 10.0 mi East 16.1 mph - N/A   Overcast
8:52 PM 52.0 °F - 51.1 °F 97% 29.79 in 9.0 mi East 11.5 mph - N/A   Overcast
9:52 PM 54.0 °F - 52.0 °F 93% 29.78 in 7.0 mi East 11.5 mph - N/A   Overcast
10:08 PM 53.6 °F - 51.8 °F 94% 29.78 in 7.0 mi East 9.2 mph - N/A   Overcast
10:50 PM 53.6 °F - 51.8 °F 94% 29.76 in 7.0 mi North 10.4 mph - 0.00 in Rain Light Rain
10:52 PM 53.1 °F - 52.0 °F 96% 29.75 in 7.0 mi NNE 9.2 mph - 0.00 in Rain Light Rain
11:40 PM 53.6 °F - 53.6 °F 100% 29.71 in 6.0 mi ENE 8.1 mph - 0.00 in   Mostly Cloudy
11:52 PM 54.0 °F - 53.1 °F 97% 29.70 in 5.0 mi ENE 8.1 mph - 0.00 in   Mostly Cloudy